Location: Caltech
(34.1382°N, 118.1253°W)
Time: 04:41:30
(UTC-07:00)

Iridium 70 - Visible Passes

Search period start: 20 May 2018 00:00
Search period end: 30 May 2018 00:00
Orbit: 776 x 779 km, 86.4° (Epoch: 19 May)

Date Brightness Start Highest point End Pass type
(mag) Time Alt. Az. Time Alt. Az. Time Alt. Az.
20 May 7.4 01:29:22 10° NNE 01:32:33 25° ENE 01:32:33 25° ENE visible
20 May 7.0 03:10:01 10° NNW 03:13:02 24° WNW 03:13:02 24° WNW visible
21 May 8.0 00:57:16 10° NE 00:59:01 14° ENE 00:59:01 14° ENE visible
21 May 6.5 02:35:57 10° NNW 02:39:29 39° NW 02:39:29 39° NW visible
22 May 6.4 02:02:18 10° N 02:05:57 46° N 02:05:57 46° N visible
23 May 7.0 01:29:04 10° NNE 01:32:25 32° NE 01:32:25 32° NE visible
23 May 7.4 03:10:48 10° NW 03:12:53 17° WNW 03:12:53 17° WNW visible
24 May 7.6 00:56:21 10° NNE 00:58:54 19° ENE 00:58:54 19° ENE visible
24 May 6.9 02:36:19 10° NNW 02:39:22 28° NW 02:39:22 28° NW visible
25 May 8.2 00:25:22 10° ENE 00:25:23 10° ENE 00:25:23 10° ENE visible
25 May 6.5 02:02:26 10° N 02:05:51 41° NNW 02:05:51 41° NNW visible
26 May 6.7 01:28:57 10° N 01:32:21 39° NNE 01:32:21 39° NNE visible
26 May 7.8 03:12:14 10° WNW 03:12:48 11° WNW 03:12:48 11° WNW visible
27 May 7.3 00:55:52 10° NNE 00:58:51 26° NE 00:58:51 26° NE visible
27 May 7.3 02:36:54 10° NNW 02:39:19 20° NW 02:39:19 20° NW visible
28 May 7.8 00:23:30 10° NE 00:25:21 15° ENE 00:25:21 15° ENE visible
28 May 6.8 02:02:41 10° NNW 02:05:49 32° NW 02:05:49 32° NW visible
29 May 6.6 01:28:58 10° N 01:32:20 41° N 01:32:20 41° N visible
